Retour au catalogue

STARLINK-36700

ActifCommunicationsSSO
NORAD 67662·PAYLOAD·🇺🇸 United States

Lancé Feb 2, 2026 depuis Vandenberg Space Force Base

Loading…

Prochains Passages (prochaines 24 heures)

TLE

FraisSource: CelesTrak SupGP

Époque: Sep 15, 2026, 03:32 UTC

1 67662C 26022Q   26258.14770833 -.00050877  00000+0 -15795-2 0  2580
2 67662  97.2844 289.8600 0001230  86.6602 199.0021 15.33461749    16

Suivez STARLINK-36700 en temps réel avec AllMySat

Download on the App Store